McComb, MS

4:34 PM CDT on August 19, 2017 (GMT -0500)
McComb-Pike County-Lewis

Weather History for KMCB - March, 2013

Change the Weather History Date:

Thursday, March 7, 2013

  Actual Average Record
Temperature  
Mean Temperature 48 °F -  
Max Temperature 62 °F 67 °F 86 °F (1992)
Min Temperature 35 °F 42 °F 27 °F (1966)
Degree Days  
Heating Degree Days 16    
Moisture  
Dew Point 32 °F    
Average Humidity 59    
Maximum Humidity 89    
Minimum Humidity 29    
Precipitation  
Precipitation 0.00 in - - ()
Sea Level Pressure  
Sea Level Pressure 30.28 in    
Wind  
Wind Speed 3 mph (ENE)    
Max Wind Speed 7 mph    
Max Gust Speed -    
Visibility 10 miles    
Events      
Averages and records for this station are not official NWS values.
T = Trace of Precipitation, MM = Missing Value Source: NWS Daily Summary

Daily Weather History Graph

Daily Weather History Graph

Search for Another Location

Airport or City:

Trip Planner

Search our weather history database for the weather conditions in past years. The results will help you decide how hot, cold, wet, or windy it might be!

Date:

Astronomy

Mar. 07, 2013 Rise Set
Actual Time 6:21 AM CST 6:04 PM CST
Civil Twilight 5:57 AM CST 6:28 PM CST
Nautical Twilight 5:29 AM CST 6:57 PM CST
Astronomical Twilight 5:00 AM CST 7:25 PM CST
Moon 3:07 AM CST (3/7) 2:05 PM CST (3/7)
Length of Visible Light 12h 31m
Length of Day
11h 43m
Waning Crescent, 20% of the Moon is Illuminated
Mar 7
Waning Crescent
Mar 11
New
Mar 19
First Quarter
Mar 27
Full
Apr 2
Last Quarter

Hourly Weather History & Observations

Time (CST) Temp. Windchill Dew Point Humidity Pressure Visibility Wind Dir Wind Speed Gust Speed Precip Events Conditions
12:53 AM 39.0 °F 35.7 °F 28.9 °F 67% 30.27 in 10.0 mi NE 4.6 mph - N/A   Clear
1:53 AM 39.0 °F 34.8 °F 28.9 °F 67% 30.25 in 10.0 mi NE 5.8 mph - N/A   Clear
2:53 AM 39.9 °F 35.8 °F 30.0 °F 68% 30.25 in 10.0 mi NE 5.8 mph - N/A   Clear
3:53 AM 39.0 °F 35.7 °F 30.0 °F 70% 30.25 in 10.0 mi NE 4.6 mph - N/A   Clear
4:53 AM 37.0 °F - 30.0 °F 76% 30.28 in 10.0 mi Calm Calm - N/A   Clear
5:53 AM 36.0 °F - 30.0 °F 79% 30.30 in 10.0 mi Calm Calm - N/A   Clear
6:53 AM 35.1 °F 32.2 °F 30.0 °F 82% 30.31 in 10.0 mi ENE 3.5 mph - N/A   Clear
7:53 AM 39.9 °F 35.1 °F 30.0 °F 68% 30.33 in 10.0 mi East 6.9 mph - N/A   Clear
8:53 AM 45.0 °F 42.6 °F 28.9 °F 53% 30.35 in 10.0 mi ENE 4.6 mph - N/A   Clear
9:53 AM 48.9 °F - 30.9 °F 50% 30.37 in 10.0 mi SSE 4.6 mph - N/A   Clear
10:53 AM 53.1 °F - 28.9 °F 40% 30.35 in 10.0 mi Variable 3.5 mph - N/A   Clear
11:53 AM 57.0 °F - 30.0 °F 36% 30.32 in 10.0 mi NW 3.5 mph - N/A   Clear
12:53 PM 60.1 °F - 30.0 °F 32% 30.28 in 10.0 mi Calm Calm - N/A   Clear
1:53 PM 61.0 °F - 30.0 °F 31% 30.27 in 10.0 mi Calm Calm - N/A   Clear
2:53 PM 61.0 °F - 30.0 °F 31% 30.25 in 10.0 mi Calm Calm - N/A   Clear
3:53 PM 62.1 °F - 28.9 °F 29% 30.24 in 10.0 mi Calm Calm - N/A   Clear
4:53 PM 61.0 °F - 28.9 °F 30% 30.24 in 10.0 mi Calm Calm - N/A   Clear
5:53 PM 55.9 °F - 35.1 °F 45% 30.24 in 10.0 mi Calm Calm - N/A   Clear
6:53 PM 48.9 °F - 37.0 °F 64% 30.25 in 10.0 mi Calm Calm - N/A   Clear
7:53 PM 46.9 °F - 37.0 °F 68% 30.25 in 10.0 mi Calm Calm - N/A   Clear
8:53 PM 44.1 °F - 36.0 °F 73% 30.26 in 10.0 mi Calm Calm - N/A   Clear
9:53 PM 41.0 °F - 36.0 °F 82% 30.26 in 9.0 mi Calm Calm - N/A   Clear
10:53 PM 39.9 °F - 37.0 °F 89% 30.26 in 10.0 mi Calm Calm - N/A   Clear
11:53 PM 41.0 °F - 36.0 °F 82% 30.25 in 8.0 mi Calm Calm - N/A   Clear